Location: Tel Aviv
(32.0670°N, 34.7670°E)
Time: 02:41:36
(UTC+03:00)

Tiros 1 - Pass Details

Date: 21 January 2022
Orbit: 629 x 663 km, 48.4° (Epoch: 26 May)

Event Time Altitude Azimuth Distance (km) Brightness Sun altitude
Rises 02:26:09 0° 302° (WNW) 2,984 - -53.6°
Reaches altitude 10° 02:30:29 10° 339° (NNW) 2,065 - -52.7°
Maximum altitude 02:31:45 11° 355° (N) 2,001 - -52.4°
Drops below altitude 10° 02:33:01 10° 10° (N) 2,060 - -52.1°
Sets 02:37:19 0° 47° (NE) 2,961 - -51.2°
